FW4785 Weather Reports


time (UTC)temp
C
wind
direction
speed
KPH
gust
KPH
rain 1hr
cm
rain 24hr
cm
rain mn
cm
humidity
%
barometer
mb
20260510153430 28 101 4.8 11.3 0.00 0.00 0.00 79 1013.4
20260510152930 28 45 4.8 9.7 0.00 0.00 0.00 79 1013.5
20260510152702 27 63 4.8 12.9 0.00 0.00 0.00 82 1013.6
20260510151930 27 64 4.8 12.9 0.00 0.00 0.00 82 1013.6
20260510151702 27 81 4.8 11.3 0.00 0.00 0.00 81 1013.6
20260510150929 27 118 3.2 11.3 0.00 0.00 0.00 81 1013.6
20260510150430 27 98 3.2 6.4 0.00 0.00 0.00 83 1013.4
20260510145929 27 24 4.8 9.7 0.00 0.00 0.00 83 1013.5
20260510145428 27 82 4.8 11.3 0.00 0.00 0.00 81 1013.5
20260510144932 27 112 6.4 12.9 0.00 0.00 0.00 82 1013.5
20260510144429 27 110 6.4 12.9 0.00 0.00 0.00 82 1013.3
20260510143930 27 82 6.4 12.9 0.00 0.00 0.00 86 1013.2
20260510143429 26 156 8.0 14.5 0.00 0.00 0.00 87 1013.1
20260510142930 26 132 6.4 14.5 0.00 0.00 0.00 88 1013.1
20260510142429 26 67 6.4 12.9 0.00 0.00 0.00 90 1013.1
20260510141931 26 146 6.4 12.9 0.00 0.00 0.00 90 1013.1
20260510141430 26 142 8.0 14.5 0.00 0.00 0.00 89 1013.0
20260510140931 25 138 8.0 14.5 0.00 0.00 0.00 90 1012.9
20260510140428 25 123 9.7 16.1 0.00 0.00 0.00 92 1012.8
20260510135929 25 123 9.7 16.1 0.00 0.00 0.00 93 1012.7
20260510135428 25 92 9.7 16.1 0.00 0.00 0.00 94 1012.6
20260510134929 25 121 9.7 14.5 0.00 0.00 0.00 95 1012.5
20260510134429 25 124 8.0 12.9 0.00 0.00 0.00 97 1012.4
20260510133930 25 127 8.0 12.9 0.00 0.00 0.00 97 1012.4
20260510133430 25 111 8.0 14.5 0.00 0.00 0.00 98 1012.2
20260510132930 24 138 6.4 14.5 0.00 0.00 0.00 98 1012.0
20260510132428 24 142 6.4 12.9 0.00 0.00 0.00 98 1012.0
20260510132159 24 142 6.4 12.9 0.00 0.00 0.00 98 1011.9
20260510131429 24 127 4.8 9.7 0.00 0.00 0.00 98 1011.8
20260510130929 24 138 3.2 6.4 0.00 0.00 0.00 98 1011.7
20260510130428 23 88 3.2 6.4 0.00 0.00 0.00 98 1011.7
20260510125932 23 86 1.6 4.8 0.00 0.00 0.00 98 1011.6
20260510125429 22 71 1.6 4.8 0.00 0.00 0.00 98 1011.5
20260510124934 22 33 1.6 3.2 0.00 0.00 0.00 98 1011.5
20260510124432 22 33 1.6 3.2 0.00 0.00 0.00 97 1011.5
20260510123930 22 33 1.6 3.2 0.00 0.00 0.00 97 1011.3
20260510123429 22 37 0.0 1.6 0.00 0.00 0.00 97 1011.3
20260510122929 21 37 0.0 0.0 0.00 0.00 0.00 97 1011.2
20260510122429 21 37 0.0 1.6 0.00 0.00 0.00 97 1011.1
20260510121929 21 37 0.0 1.6 0.00 0.00 0.00 97 1011.1
20260510121429 21 37 0.0 1.6 0.00 0.00 0.00 97 1011.1
20260510120930 21 37 0.0 1.6 0.00 0.00 0.00 97 1011.0
20260510120428 21 37 0.0 3.2 0.00 0.00 0.00 97 1011.0
20260510115929 21 37 0.0 3.2 0.00 0.00 0.00 97 1011.1
20260510115429 21 37 0.0 0.0 0.00 0.00 0.00 97 1011.0
20260510114929 21 37 0.0 1.6 0.00 0.00 0.00 97 1011.0
20260510114429 21 37 1.6 3.2 0.00 0.00 0.00 97 1010.9
20260510113929 21 37 1.6 3.2 0.00 0.00 0.00 97 1010.9
20260510113428 22 37 1.6 3.2 0.00 0.00 0.00 97 1010.9
20260510112921 22 37 1.6 3.2 0.00 0.00 0.00 97 1010.7
20260510112416 22 113 1.6 3.2 0.00 0.00 0.00 97 1010.8
20260510111910 22 127 3.2 4.8 0.00 0.00 0.00 97 1010.7
20260510111408 22 140 3.2 6.4 0.00 0.00 0.00 97 1010.5
20260510110908 22 174 3.2 6.4 0.00 0.00 0.00 97 1010.4
20260510110406 22 156 3.2 6.4 0.00 0.00 0.00 97 1010.5
20260510105906 22 152 4.8 8.0 0.00 0.00 0.00 97 1010.4
20260510105406 22 175 4.8 8.0 0.00 0.00 0.00 97 1010.4
20260510105133 22 146 3.2 6.4 0.00 0.00 0.00 97 1010.4
20260510104402 22 178 3.2 6.4 0.00 0.00 0.00 97 1010.4
20260510103901 22 138 4.8 9.7 0.00 0.00 0.00 97 1010.3
20260510103401 22 173 4.8 9.7 0.00 0.00 0.00 97 1010.4
20260510102901 22 142 4.8 9.7 0.00 0.00 0.00 97 1010.3
20260510102405 22 145 4.8 11.3 0.00 0.00 0.00 97 1010.3
20260510102132 22 159 6.4 11.3 0.00 0.00 0.00 97 1010.2
20260510101630 22 168 4.8 9.7 0.00 0.00 0.00 97 1010.3
20260510100900 21 155 4.8 8.0 0.00 0.00 0.00 97 1010.3
20260510100401 21 156 3.2 8.0 0.00 0.00 0.00 97 1010.4
20260510095901 21 132 3.2 8.0 0.00 0.00 0.00 97 1010.5
20260510095629 21 144 3.2 6.4 0.00 0.00 0.00 97 1010.3
20260510094902 21 148 3.2 4.8 0.00 0.00 0.00 97 1010.4
20260510094401 21 116 1.6 3.2 0.00 0.00 0.00 96 1010.4
20260510093900 21 144 0.0 1.6 0.00 0.00 0.00 96 1010.4
20260510093401 21 144 1.6 3.2 0.00 0.00 0.00 97 1010.3
20260510092901 21 144 1.6 6.4 0.00 0.00 0.00 97 1010.3
20260510092401 21 144 3.2 6.4 0.00 0.00 0.00 97 1010.3
20260510091901 21 151 1.6 4.8 0.00 0.00 0.00 96 1010.3
20260510091401 21 132 3.2 4.8 0.00 0.00 0.00 96 1010.3
20260510090901 21 132 3.2 4.8 0.00 0.00 0.00 96 1010.3
20260510090403 21 132 3.2 6.4 0.00 0.00 0.00 96 1010.3
20260510090356 21 154 3.2 6.4 0.00 0.00 0.00 96 1010.2
20260510085403 21 180 1.6 6.4 0.00 0.00 0.00 96 1010.3
20260510084902 21 169 1.6 3.2 0.00 0.00 0.00 96 1010.3
20260510084623 21 82 0.0 0.0 0.00 0.00 0.00 96 1010.4
20260510084603 21 82 0.0 1.6 0.00 0.00 0.00 96 1010.5
20260510083403 21 82 0.0 0.0 0.00 0.00 0.00 95 1010.5
20260510082902 21 82 0.0 0.0 0.00 0.00 0.00 95 1010.5
20260510082400 21 82 0.0 1.6 0.00 0.00 0.00 95 1010.5
20260510081858 21 82 0.0 1.6 0.00 0.00 0.00 96 1010.5
20260510081357 21 82 0.0 0.0 0.00 0.00 0.00 96 1010.4
20260510080856 21 82 0.0 0.0 0.00 0.00 0.00 96 1010.5
20260510080353 21 82 0.0 0.0 0.00 0.00 0.00 96 1010.5
20260510075854 21 82 0.0 0.0 0.00 0.00 0.00 96 1010.4
20260510075619 21 82 0.0 1.6 0.00 0.00 0.00 96 1010.4
20260510075113 21 82 0.0 1.6 0.00 0.00 0.00 95 1010.5
20260510074353 21 82 0.0 1.6 0.00 0.00 0.00 96 1010.5
20260510073853 21 82 0.0 1.6 0.00 0.00 0.00 96 1010.3
20260510073353 21 82 0.0 1.6 0.00 0.00 0.00 96 1010.3
20260510072853 21 82 0.0 1.6 0.00 0.00 0.00 96 1010.3
20260510072348 21 82 1.6 3.2 0.00 0.00 0.00 96 1010.4
20260510071849 21 82 1.6 3.2 0.00 0.00 0.00 96 1010.4
20260510071349 21 82 1.6 3.2 0.00 0.00 0.00 95 1010.4
20260510071112 21 82 1.6 3.2 0.00 0.00 0.00 95 1010.5
20260510070348 21 82 1.6 3.2 0.00 0.00 0.00 95 1010.3
20260510070114 21 82 1.6 4.8 0.00 0.00 0.00 95 1010.4
20260510065347 21 82 3.2 4.8 0.00 0.00 0.00 95 1010.4
20260510064848 21 82 3.2 6.4 0.00 0.00 0.00 94 1010.5
20260510064616 21 93 3.2 6.4 0.00 0.00 0.00 94 1010.5
20260510063844 21 121 3.2 4.8 0.00 0.00 0.00 94 1010.5
20260510063343 21 138 3.2 4.8 0.00 0.00 0.00 94 1010.6
20260510062843 21 126 3.2 4.8 0.00 0.00 0.00 94 1010.7
20260510062343 21 103 4.8 6.4 0.00 0.00 0.00 93 1010.7
20260510061844 21 92 4.8 6.4 0.00 0.00 0.00 93 1010.8
20260510061343 21 131 3.2 6.4 0.00 0.00 0.00 93 1010.7
20260510060844 21 135 3.2 8.0 0.00 0.00 0.00 93 1010.8
20260510060344 22 141 3.2 8.0 0.00 0.00 0.00 93 1010.7
20260510055844 22 167 3.2 6.4 0.00 0.00 0.00 93 1010.7
20260510055339 22 130 1.6 4.8 0.00 0.00 0.00 93 1010.9
20260510055109 22 157 1.6 3.2 0.00 0.00 0.00 92 1010.8
20260510054338 22 126 1.6 4.8 0.00 0.00 0.00 92 1011.0
20260510053838 22 126 3.2 4.8 0.00 0.00 0.00 93 1010.9
20260510053338 22 126 3.2 4.8 0.00 0.00 0.00 93 1011.1
20260510052838 22 106 3.2 6.4 0.00 0.00 0.00 93 1011.1
20260510052337 22 106 4.8 6.4 0.00 0.00 0.00 93 1011.2
20260510051837 22 109 3.2 6.4 0.00 0.00 0.00 92 1011.2
20260510051336 22 84 4.8 11.3 0.00 0.00 0.00 92 1011.3
20260510050835 22 94 3.2 11.3 0.00 0.00 0.00 92 1011.3
20260510050335 22 87 3.2 9.7 0.00 0.00 0.00 92 1011.2
20260510045833 22 88 3.2 9.7 0.00 0.00 0.00 92 1011.2
20260510045334 22 71 4.8 11.3 0.00 0.00 0.00 92 1011.0
20260510044834 22 87 4.8 11.3 0.00 0.00 0.00 92 1011.1
20260510044330 22 89 4.8 9.7 0.00 0.00 0.00 91 1011.1
20260510043830 22 82 4.8 9.7 0.00 0.00 0.00 91 1011.0
20260510043330 22 78 4.8 11.3 0.00 0.00 0.00 91 1010.9
20260510043057 22 99 3.2 11.3 0.00 0.00 0.00 91 1010.9
20260510042330 22 69 3.2 6.4 0.00 0.00 0.00 92 1011.0
20260510042056 23 70 3.2 4.8 0.00 0.00 0.00 92 1010.9
20260510041330 23 57 4.8 9.7 0.00 0.00 0.00 92 1011.0
20260510041107 23 73 8.0 14.5 0.00 0.00 0.00 92 1010.9
20260510040330 23 118 9.7 14.5 0.00 0.00 0.00 92 1010.6
20260510040059 23 127 8.0 14.5 0.00 0.00 0.00 91 1010.5
20260510035330 23 137 6.4 11.3 0.00 0.00 0.00 91 1010.5
20260510034829 23 146 8.0 14.5 0.00 0.00 0.00 91 1010.5
20260510034329 23 138 9.7 16.1 0.00 0.00 0.00 91 1010.3
20260510033829 23 126 9.7 16.1 0.00 0.00 0.00 91 1010.4
20260510033330 23 111 8.0 14.5 0.00 0.00 0.00 90 1010.4
20260510032834 23 85 8.0 17.7 0.00 0.00 0.00 89 1010.4
20260510032334 23 82 8.0 17.7 0.00 0.00 0.00 89 1010.4
20260510031833 23 69 4.8 17.7 0.00 0.00 0.00 89 1010.4
20260510031333 23 73 1.6 6.4 0.00 0.00 0.00 87 1010.4
20260510030834 23 70 1.6 3.2 0.00 0.00 0.00 84 1010.2
20260510030333 23 50 1.6 6.4 0.00 0.00 0.00 81 1010.0
20260510025833 23 50 3.2 11.3 0.00 0.00 0.00 79 1009.8
20260510025334 23 88 4.8 11.3 0.00 0.00 0.00 77 1009.5
20260510025057 24 119 6.4 11.3 0.00 0.00 0.00 76 1009.1
20260510024333 24 140 6.4 11.3 0.00 0.00 0.00 75 1009.0
20260510023833 24 151 4.8 9.7 0.00 0.00 0.00 74 1009.0
20260510023559 24 173 4.8 9.7 0.00 0.00 0.00 74 1009.1
20260510022832 24 184 3.2 8.0 0.00 0.00 0.00 74 1009.1
20260510022334 24 167 1.6 6.4 0.00 0.00 0.00 74 1009.2
20260510021834 25 123 1.6 4.8 0.00 0.00 0.00 74 1009.3
20260510021556 25 123 3.2 4.8 0.00 0.00 0.00 74 1009.3
20260510020833 25 121 3.2 9.7 0.00 0.00 0.00 73 1009.1
20260510020333 25 142 3.2 9.7 0.00 0.00 0.00 72 1008.9
20260510015833 25 148 3.2 8.0 0.00 0.00 0.00 71 1008.8
20260510015325 26 167 4.8 8.0 0.00 0.00 0.00 71 1008.7
20260510014818 26 131 3.2 6.4 0.00 0.00 0.00 69 1008.6
20260510014312 26 170 1.6 6.4 0.00 0.00 0.00 68 1008.5
20260510014040 26 170 3.2 8.0 0.00 0.00 0.00 68 1008.6
20260510013305 26 180 3.2 9.7 0.00 0.00 0.00 68 1008.6
20260510012803 26 163 4.8 9.7 0.00 0.00 0.00 67 1008.3
20260510012307 27 143 6.4 12.9 0.00 0.00 0.00 66 1008.2
20260510011800 27 126 6.4 12.9 0.00 0.00 0.00 65 1008.0
20260510011301 27 153 6.4 11.3 0.00 0.00 0.00 64 1007.9
20260510010801 27 152 6.4 11.3 0.00 0.00 0.00 64 1008.0
20260510010302 28 163 6.4 12.9 0.00 0.00 0.00 63 1007.9
20260510010035 28 147 6.4 14.5 0.00 0.00 0.00 61 1008.1
20260510005301 28 176 6.4 14.5 0.00 0.00 0.00 61 1008.0
20260510004801 28 194 6.4 12.9 0.00 0.00 0.00 62 1007.9
20260510004301 28 168 6.4 14.5 0.00 0.00 0.00 63 1007.9
20260510004041 29 186 8.0 14.5 0.00 0.00 0.00 62 1007.9
20260510003301 29 175 6.4 14.5 0.00 0.00 0.00 61 1007.9
20260510002801 29 178 6.4 16.1 0.00 0.00 0.00 61 1007.8
20260510002301 30 204 8.0 17.7 0.00 0.00 0.00 60 1007.8
20260510001802 30 213 9.7 17.7 0.00 0.00 0.00 60 1007.8
20260510001523 30 162 11.3 20.9 0.00 0.00 0.00 60 1007.6
20260510000801 30 215 9.7 20.9 0.00 0.00 0.00 61 1007.6
20260510000304 30 182 9.7 20.9 0.00 0.00 0.00 61 1007.5
20260509235801 31 202 11.3 20.9 0.00 0.00 0.00 60 1007.7
20260509235301 31 170 9.7 17.7 0.00 0.00 0.00 59 1007.7
20260509235023 31 182 8.0 14.5 0.00 0.00 0.00 59 1007.8
20260509235006 31 223 8.0 16.1 0.00 0.00 0.00 59 1007.8
20260509233801 32 194 6.4 14.5 0.00 0.00 0.00 58 1007.9
20260509233301 32 161 6.4 14.5 0.00 0.00 0.00 59 1007.8
20260509232800 32 209 6.4 11.3 0.00 0.00 0.00 59 1007.8
20260509232305 32 171 6.4 12.9 0.00 0.00 0.00 56 1007.6
20260509231801 33 190 6.4 12.9 0.00 0.00 0.00 55 1007.6
20260509231526 33 171 4.8 12.9 0.00 0.00 0.00 55 1007.6
20260509231034 33 253 1.6 6.4 0.00 0.00 0.00 57 1007.5
20260509230301 33 305 1.6 4.8 0.00 0.00 0.00 56 1007.6
20260509225801 33 329 3.2 4.8 0.00 0.00 0.00 57 1007.5
20260509225528 33 348 1.6 4.8 0.00 0.00 0.00 56 1007.5
20260509224800 33 5 1.6 6.4 0.00 0.00 0.00 56 1007.6
20260509224300 33 232 1.6 6.4 0.00 0.00 0.00 57 1007.5
20260509224035 33 288 1.6 3.2 0.00 0.00 0.00 58 1007.5
20260509223301 33 306 1.6 6.4 0.00 0.00 0.00 57 1007.5
20260509223034 33 317 1.6 6.4 0.00 0.00 0.00 58 1007.5
20260509222302 33 146 1.6 4.8 0.00 0.00 0.00 59 1007.7
20260509221800 33 10 4.8 9.7 0.00 0.00 0.00 58 1007.5
20260509221301 33 333 4.8 9.7 0.00 0.00 0.00 60 1007.6
20260509220800 33 346 3.2 9.7 0.00 0.00 0.00 60 1007.7
20260509220301 33 271 3.2 9.7 0.00 0.00 0.00 60 1007.6
20260509215800 33 290 3.2 4.8 0.00 0.00 0.00 61 1007.5
20260509215531 33 279 3.2 6.4 0.00 0.00 0.00 62 1007.6
20260509214801 33 331 3.2 6.4 0.00 0.00 0.00 60 1007.6
20260509214301 33 294 3.2 6.4 0.00 0.00 0.00 64 1007.6
20260509213806 33 184 3.2 6.4 0.00 0.00 0.00 60 1007.6
20260509213534 32 189 3.2 6.4 0.00 0.00 0.00 61 1007.7
20260509212807 32 311 3.2 6.4 0.00 0.00 0.00 62 1007.7
20260509212306 32 315 3.2 6.4 0.00 0.00 0.00 61 1007.7
20260509211756 32 9 3.2 6.4 0.00 0.00 0.00 62 1007.6
20260509211250 32 327 3.2 6.4 0.00 0.00 0.00 60 1007.7
20260509210743 32 327 3.2 6.4 0.00 0.00 0.00 61 1007.7
20260509210238 32 189 3.2 6.4 0.00 0.00 0.00 60 1007.7
20260509205956 32 311 3.2 8.0 0.00 0.00 0.00 63 1007.6
20260509205226 32 282 3.2 12.9 0.00 0.00 0.00 61 1007.8
20260509204720 32 0 3.2 12.9 0.00 0.00 0.00 62 1007.7
20260509204214 32 333 4.8 11.3 0.00 0.00 0.00 61 1007.7
20260509203712 31 331 6.4 16.1 0.00 0.00 0.00 64 1007.8
20260509203213 32 355 4.8 16.1 0.00 0.00 0.00 63 1007.8
20260509202713 32 340 3.2 8.0 0.00 0.00 0.00 63 1007.9
20260509202213 32 275 4.8 14.5 0.00 0.00 0.00 62 1007.9
20260509201713 31 336 8.0 14.5 0.00 0.00 0.00 64 1008.0
20260509201213 31 282 8.0 17.7 0.00 0.00 0.00 63 1008.2
20260509200712 31 355 4.8 17.7 0.00 0.00 0.00 65 1008.1
20260509200213 31 293 4.8 12.9 0.00 0.00 0.00 64 1008.3
20260509195713 31 315 6.4 12.9 0.00 0.00 0.00 66 1008.4
20260509195213 31 317 3.2 9.7 0.00 0.00 0.00 67 1008.4
20260509194712 31 295 4.8 16.1 0.00 0.00 0.00 65 1008.4
20260509194213 31 271 4.8 16.1 0.00 0.00 0.00 67 1008.6
20260509193710 31 355 3.2 11.3 0.00 0.00 0.00 65 1008.5
20260509193703 31 342 3.2 11.3 0.00 0.00 0.00 66 1008.6
20260509192710 31 288 4.8 11.3 0.00 0.00 0.00 65 1008.6
20260509192210 31 300 4.8 11.3 0.00 0.00 0.00 65 1008.8
20260509191711 30 245 4.8 11.3 0.00 0.00 0.00 65 1008.7
20260509191212 31 355 6.4 12.9 0.00 0.00 0.00 67 1008.8
20260509190711 30 255 8.0 16.1 0.00 0.00 0.00 66 1008.8
20260509190211 30 0 6.4 16.1 0.00 0.00 0.00 67 1008.8
20260509185710 30 348 6.4 17.7 0.00 0.00 0.00 67 1008.8
20260509185207 30 355 6.4 17.7 0.00 0.00 0.00 66 1008.9
20260509184707 30 349 4.8 12.9 0.00 0.00 0.00 70 1009.0
20260509184206 30 323 4.8 9.7 0.00 0.00 0.00 70 1009.0
20260509183935 30 279 6.4 9.7 0.00 0.00 0.00 71 1009.1
20260509183206 30 330 6.4 14.5 0.00 0.00 0.00 73 1009.2
20260509182937 29 28 6.4 14.5 0.00 0.00 0.00 71 1009.2
20260509182207 29 301 6.4 16.1 0.00 0.00 0.00 72 1009.1
20260509181707 29 355 6.4 16.1 0.00 0.00 0.00 74 1009.2
20260509181207 29 269 4.8 16.1 0.00 0.00 0.00 73 1009.2
20260509180707 29 306 4.8 12.9 0.00 0.00 0.00 72 1009.2
20260509180206 29 286 6.4 14.5 0.00 0.00 0.00 73 1009.2
20260509175706 29 348 4.8 14.5 0.00 0.00 0.00 75 1009.4
20260509175437 29 342 4.8 12.9 0.00 0.00 0.00 74 1009.3
20260509174710 28 320 3.2 9.7 0.00 0.00 0.00 75 1009.4
20260509174207 28 304 3.2 9.7 0.00 0.00 0.00 75 1009.5
20260509173936 28 311 4.8 11.3 0.00 0.00 0.00 77 1009.4
20260509173206 28 284 3.2 11.3 0.00 0.00 0.00 74 1009.6
20260509172705 28 355 1.6 6.4 0.00 0.00 0.00 78 1009.6
20260509172205 28 323 3.2 6.4 0.00 0.00 0.00 78 1009.6
20260509171932 28 35 1.6 6.4 0.00 0.00 0.00 79 1009.5
20260509171439 27 265 1.6 3.2 0.00 0.00 0.00 81 1009.6
20260509170705 27 300 1.6 8.0 0.00 0.00 0.00 82 1009.4
20260509170201 27 300 4.8 12.9 0.00 0.00 0.00 81 1009.4
20260509165702 27 345 4.8 12.9 0.00 0.00 0.00 82 1009.4
20260509165201 26 0 1.6 4.8 0.00 0.00 0.00 81 1009.6
20260509164700 26 115 1.6 4.8 0.00 0.00 0.00 82 1009.7
20260509164202 26 84 3.2 6.4 0.00 0.00 0.00 81 1009.9
20260509163702 26 134 3.2 8.0 0.00 0.00 0.00 83 1009.9
20260509163205 26 114 4.8 9.7 0.00 0.00 0.00 83 1009.8
20260509162701 26 191 4.8 9.7 0.00 0.00 0.00 84 1009.8
20260509162431 26 128 4.8 11.3 0.00 0.00 0.00 84 1009.8
20260509161701 26 194 6.4 12.9 0.00 0.00 0.00 85 1009.7
20260509161201 25 155 8.0 14.5 0.00 0.00 0.00 84 1009.8
20260509160701 25 126 6.4 14.5 0.00 0.00 0.00 85 1009.9
20260509160202 25 148 8.0 12.9 0.00 0.00 0.00 85 1009.6
20260509155701 25 157 9.7 16.1 0.00 0.00 0.00 85 1009.7
20260509155202 25 157 11.3 17.7 0.00 0.00 0.00 85 1009.7
20260509154700 25 121 8.0 17.7 0.00 0.00 0.00 86 1009.6
20260509154201 25 128 8.0 14.5 0.00 0.00 0.00 87 1009.7
20260509153935 25 154 8.0 14.5 0.00 0.00 0.00 89 1009.6